This demonstration page uses our WeatherBlox Daily Observations layout. Learn more.

41.55636, -103.73856

Hourly Observations for May 11, 2016

Temp ( °F °C ) Dew Point ( °F °C ) Humidity (%) Winds ( mph kmh ) Pressure ( in mb ) Visibility ( mi km ) Precip ( " mm )
12:53 am 00:53 Clear 40 4.4 35 1.7 83 83 NNW 8 13 30.07 1018 10 16.0934 0 0
1:53 am 01:53 Clear 39 3.9 34 1.1 82 82 N 7 11 30.07 1018 10 16.0934 0 0
2:53 am 02:53 Clear 37 2.8 32 0 82 82 WNW 7 11 30.09 1019 10 16.0934 0 0
3:53 am 03:53 Clear 34 1.1 31 -0.6 89 89 NW 6 9 30.09 1019 10 16.0934 0 0
4:53 am 04:53 Clear 34 1.1 31 -0.6 89 89 NNW 3 6 30.11 1020 10 16.0934 0 0
5:53 am 05:53 Sunny 34 1.1 31 -0.6 89 89 NNW 5 7 30.12 1020 10 16.0934 0 0
6:53 am 06:53 Sunny 39 3.9 35 1.7 86 86 WNW 7 11 30.14 1021 10 16.0934 0 0
7:53 am 07:53 Sunny 42 5.6 35 1.7 76 76 WNW 8 13 30.15 1021 10 16.0934 0 0
8:53 am 08:53 Sunny 48 8.9 34 1.1 58 58 WNW 12 19 30.15 1021 10 16.0934 0 0
9:53 am 09:53 Mostly Sunny 52 11.1 31 -0.6 45 45 WNW 17 28 30.15 1021 10 16.0934 0 0
10:53 am 10:53 Mostly Cloudy 53 11.7 29 -1.7 40 40 WNW 21 33 30.16 1021 10 16.0934 0 0
11:53 am 11:53 Mostly Cloudy 57 13.9 29 -1.7 34 34 NNW 18 30 30.15 1021 10 16.0934 0 0
12:53 pm 12:53 Mostly Cloudy 58 14.4 29 -1.7 33 33 WNW 14 22 30.15 1021 10 16.0934 0 0
1:53 pm 13:53 Cloudy 58 14.4 31 -0.6 36 36 NW 14 22 30.15 1021 10 16.0934 0 0
2:53 pm 14:53 Mostly Sunny 55 12.8 31 -0.6 40 40 NW 18 30 30.18 1022 10 16.0934 0 0
3:53 pm 15:53 Sunny 56 13.3 31 -0.6 39 39 NW 15 24 30.18 1022 10 16.0934 0 0
4:53 pm 16:53 Mostly Sunny 60 15.6 29 -1.7 31 31 NW 20 31 30.16 1021 10 16.0934 0 0
5:53 pm 17:53 Sunny 58 14.4 29 -1.7 33 33 NW 18 30 30.16 1021 10 16.0934 0 0
6:53 pm 18:53 Sunny 56 13.3 29 -1.7 36 36 NNW 16 26 30.17 1022 10 16.0934 0 0
7:53 pm 19:53 Partly Cloudy 51 10.6 30 -1.1 44 44 NNW 9 15 30.19 1023 10 16.0934 0 0
8:53 pm 20:53 Clear 46 7.8 31 -0.6 56 56 N 5 7 30.22 1024 10 16.0934 0 0
9:53 pm 21:53 Clear 44 6.7 31 -0.6 60 60 Calm 30.25 1025 10 16.0934 0 0
10:53 pm 22:53 Clear 39 3.9 31 -0.6 73 73 Calm 30.28 1026 10 16.0934 0 0
11:53 pm 23:53 Cloudy 40 4.4 32 0 73 73 Calm 30.27 1025 10 16.0934 0 0

Powered by AerisWeather